Terminal Aerodrome Forecast
Issued by NWS Charleston, WV

Current Version | Previous Version | Graphics & Text | Print | Product List | Glossary On
Versions: 1 2 3 4 5 6 7 8 9 10 11 12 13 14 15 16 17 18 19 20 21 22 23 24 25 26
000
FTUS41 KRLX 301515 AAA
TAFPKB
TAF AMD
KPKB 301515Z 3015/0112 08006KT 6SM -SHRA SCT040 BKN060
     FM301600 09007KT P6SM VCTS BKN060CB
     FM010300 VRB03KT 3SM -SHRA BKN040
     FM010600 VRB03KT 3SM BR BKN010=

USA.gov is the U.S. government's official web portal to all federal, state and local government web resources and services.